TimeMDT,TemperatureF,Dew PointF,Humidity,Sea Level PressureIn,VisibilityMPH,Wind Direction,Wind SpeedMPH,Gust SpeedMPH,PrecipitationIn,Events,Conditions,WindDirDegrees,DateUTC
12:53 AM,41.0,25.0,53,29.81,10.0,SW,16.1,-,N/A,,Clear,230,2014-03-15 06:53:00
1:53 AM,36.0,21.0,55,29.81,10.0,West,9.2,-,N/A,,Clear,270,2014-03-15 07:53:00
2:53 AM,33.1,19.9,59,29.82,10.0,West,11.5,-,N/A,,Clear,280,2014-03-15 08:53:00
3:53 AM,33.1,21.9,64,29.80,10.0,West,12.7,-,N/A,,Clear,270,2014-03-15 09:53:00
4:53 AM,34.0,19.0,54,29.79,10.0,West,10.4,-,N/A,,Clear,280,2014-03-15 10:53:00
5:53 AM,33.1,19.9,59,29.80,10.0,WNW,15.0,-,N/A,,Clear,290,2014-03-15 11:53:00
6:53 AM,28.9,19.9,69,29.85,10.0,West,13.8,-,N/A,,Clear,280,2014-03-15 12:53:00
7:53 AM,36.0,24.1,62,29.86,10.0,WNW,12.7,-,N/A,,Clear,290,2014-03-15 13:53:00
8:53 AM,45.0,28.0,52,29.86,10.0,WNW,16.1,-,N/A,,Clear,300,2014-03-15 14:53:00
9:53 AM,48.0,30.0,50,29.89,10.0,NNW,31.1,41.4,N/A,,Overcast,330,2014-03-15 15:53:00
10:53 AM,46.9,30.9,54,29.94,10.0,North,26.5,33.4,N/A,,Overcast,350,2014-03-15 16:53:00
11:44 AM,37.9,34.0,86,30.01,8.0,NNW,32.2,43.7,0.00,Rain,Light Rain,340,2014-03-15 17:44:00
11:53 AM,39.0,34.0,82,30.02,10.0,NNW,32.2,42.6,0.00,Rain,Light Rain,330,2014-03-15 17:53:00
12:13 PM,39.9,30.0,68,30.03,10.0,NNW,32.2,44.9,0.00,,Overcast,340,2014-03-15 18:13:00
12:53 PM,37.9,30.9,76,30.07,5.0,NNW,36.8,41.4,0.00,Snow,Light Snow,340,2014-03-15 18:53:00
1:04 PM,36.0,33.1,89,30.06,2.5,NNW,31.1,39.1,0.00,Snow,Light Snow,340,2014-03-15 19:04:00
1:06 PM,36.0,33.1,89,30.06,3.0,NNW,28.8,38.0,0.00,Snow,Light Snow,340,2014-03-15 19:06:00
1:18 PM,35.1,33.1,92,30.07,1.8,NNW,28.8,39.1,0.00,Snow,Light Snow,340,2014-03-15 19:18:00
1:23 PM,35.1,33.1,92,30.07,1.2,NNW,24.2,36.8,0.00,Snow,Light Snow,340,2014-03-15 19:23:00
1:29 PM,34.0,33.1,96,30.07,1.0,NNW,26.5,35.7,0.01,Snow,Light Snow,340,2014-03-15 19:29:00
1:37 PM,35.1,33.1,92,30.07,0.8,NNW,24.2,35.7,0.01,Snow,Light Snow,340,2014-03-15 19:37:00
1:43 PM,35.1,33.1,92,30.07,1.2,NNW,21.9,34.5,0.02,Snow,Light Snow,340,2014-03-15 19:43:00
1:53 PM,35.1,33.1,92,30.12,1.2,NNW,27.6,34.5,0.03,Snow,Light Snow,340,2014-03-15 19:53:00
1:58 PM,36.0,33.1,89,30.07,1.8,NNW,26.5,34.5,0.00,Snow,Light Snow,340,2014-03-15 19:58:00
2:00 PM,37.0,33.1,86,30.07,3.0,NNW,25.3,34.5,0.00,Snow,Light Snow,340,2014-03-15 20:00:00
2:37 PM,39.0,30.9,73,30.08,10.0,North,32.2,40.3,0.00,,Overcast,350,2014-03-15 20:37:00
2:53 PM,37.9,30.9,76,30.13,10.0,North,25.3,36.8,0.00,,Overcast,350,2014-03-15 20:53:00
3:53 PM,37.0,30.9,79,30.16,10.0,North,28.8,36.8,0.00,Snow,Light Snow,360,2014-03-15 21:53:00
4:09 PM,37.0,30.9,79,30.12,8.0,North,24.2,38.0,0.00,Snow,Light Snow,350,2014-03-15 22:09:00
4:53 PM,37.0,32.0,82,30.19,8.0,North,32.2,43.7,0.02,Snow,Light Snow,350,2014-03-15 22:53:00
5:53 PM,37.0,33.1,86,30.23,9.0,North,32.2,40.3,0.02,Snow,Light Snow,350,2014-03-15 23:53:00
6:53 PM,36.0,32.0,86,30.26,10.0,North,23.0,29.9,0.01,Rain,Light Rain,350,2014-03-16 00:53:00
7:33 PM,36.0,32.0,86,30.21,10.0,North,24.2,28.8,0.00,Rain,Light Rain,350,2014-03-16 01:33:00
7:53 PM,36.0,30.9,82,30.26,10.0,North,17.3,27.6,0.00,,Overcast,350,2014-03-16 01:53:00
8:53 PM,34.0,28.9,82,30.25,10.0,NNW,17.3,-,N/A,,Partly Cloudy,340,2014-03-16 02:53:00
9:53 PM,32.0,27.0,82,30.28,10.0,NNW,16.1,-,N/A,,Clear,330,2014-03-16 03:53:00
10:53 PM,30.0,25.0,82,30.31,10.0,NW,11.5,-,N/A,,Partly Cloudy,320,2014-03-16 04:53:00
11:53 PM,27.0,23.0,85,30.37,10.0,NW,10.4,-,N/A,,Partly Cloudy,320,2014-03-16 05:53:00